Weather History for Reading, PA

Change the Weather History Date:

Wednesday, February 6, 2013

  Actual Average Record
Temperature  
Mean Temperature 33 °F 30 °F  
Max Temperature 40 °F 39 °F 65 °F (1938)
Min Temperature 25 °F 22 °F -5 °F (1996)
Degree Days  
Heating Degree Days 32 35  
Month to date heating degree days 231 210  
Since 1 July heating degree days 3030 3335  
Cooling Degree Days 0 0  
Month to date cooling degree days 0 0  
Year to date cooling degree days 0 0  
Moisture  
Dew Point 24 °F    
Average Humidity 75    
Maximum Humidity 100    
Minimum Humidity 50    
Precipitation  
Precipitation 0.00 in 0.08 in 2.06 in (2004)
Month to date precipitation 0.06 0.48  
Year to date precipitation 3.58 3.53  
Snow  
Snow 0.00 in - - ()
Month to date snowfall  
Since 1 July snowfall  
Snow Depth -    
Sea Level Pressure  
Sea Level Pressure 30.11 in    
Wind  
Wind Speed 6 mph (WNW)    
Max Wind Speed 20 mph    
Max Gust Speed 23 mph    
Visibility 7 miles    
Events      
T = Trace of Precipitation, MM = Missing Value Source: NWS Daily Summary

Daily Weather History Graph

Daily Weather History Graph

Search for Another Location

Airport:

Trip Planner

Search our weather history database for the weather conditions in past years. The results will help you decide how hot, cold, wet, or windy it might be!

Date:

Astronomy

Feb. 06, 2013 Rise Set
Actual Time 7:07 AM EST 5:28 PM EST
Civil Twilight 6:39 AM EST 5:57 PM EST
Nautical Twilight 6:07 AM EST 6:29 PM EST
Astronomical Twilight 5:35 AM EST 7:01 PM EST
Moon 3:49 AM EST (2/6) 1:44 PM EST (2/6)
Length of Visible Light 11h 17m
Length of Day
10h 20m
Waning Crescent, 17% of the Moon is Illuminated
Feb 6
Waning Crescent
Feb 10
New
Feb 17
First Quarter
Feb 25
Full
Mar 4
Last Quarter

Hourly Weather History & Observations

Time (EST) Temp. Windchill Dew Point Humidity Pressure Visibility Wind Dir Wind Speed Gust Speed Precip Events Conditions
12:20 AM 30.2 °F - 28.4 °F 93% 29.92 in 6.0 mi Calm Calm - N/A   Haze
12:29 AM 30.2 °F - 28.4 °F 93% 29.92 in 6.0 mi Calm Calm - N/A   Haze
12:54 AM 30.9 °F - 28.0 °F 89% 29.95 in 6.0 mi Calm Calm - N/A   Haze
1:14 AM 30.2 °F - 26.6 °F 86% 29.92 in 6.0 mi Calm Calm - N/A   Haze
1:47 AM 30.2 °F - 26.6 °F 86% 29.92 in 4.0 mi Calm Calm - N/A   Haze
2:13 AM 28.4 °F - 26.6 °F 93% 29.92 in 4.0 mi Calm Calm - N/A   Haze
2:54 AM 28.0 °F 24.2 °F 26.1 °F 92% 29.96 in 4.0 mi NW 3.5 mph - N/A   Haze
3:05 AM 26.6 °F - 24.8 °F 93% 29.93 in 2.0 mi Calm Calm - N/A   Haze
3:54 AM 25.0 °F - 23.0 °F 92% 29.98 in 1.8 mi Calm Calm - N/A   Haze
4:06 AM 24.8 °F 19.1 °F 24.8 °F 100% 29.96 in 2.5 mi SW 4.6 mph - N/A   Haze
4:47 AM 26.6 °F 22.6 °F 26.6 °F 100% 29.98 in 3.0 mi West 3.5 mph - N/A   Haze
4:54 AM 27.0 °F - 26.1 °F 96% 30.01 in 3.0 mi Calm Calm - N/A   Haze
5:54 AM 28.9 °F 23.9 °F 27.0 °F 92% 30.04 in 4.0 mi West 4.6 mph - N/A   Overcast
6:54 AM 30.0 °F 24.1 °F 26.1 °F 85% 30.08 in 5.0 mi West 5.8 mph - N/A   Overcast
7:54 AM 30.9 °F 27.5 °F 26.1 °F 82% 30.10 in 5.0 mi West 3.5 mph - N/A   Haze
8:54 AM 33.1 °F 27.7 °F 25.0 °F 72% 30.14 in 7.0 mi West 5.8 mph - N/A   Overcast
9:54 AM 34.0 °F 28.8 °F 26.1 °F 73% 30.15 in 7.0 mi West 5.8 mph - N/A   Overcast
10:54 AM 37.9 °F 29.6 °F 25.0 °F 60% 30.16 in 10.0 mi West 13.8 mph 20.7 mph N/A   Mostly Cloudy
11:54 AM 37.9 °F 30.9 °F 23.0 °F 55% 30.17 in 10.0 mi West 10.4 mph 18.4 mph N/A   Overcast
12:54 PM 37.0 °F 28.5 °F 21.0 °F 52% 30.17 in 10.0 mi WNW 13.8 mph - N/A   Overcast
1:54 PM 37.9 °F 29.6 °F 21.0 °F 51% 30.19 in 10.0 mi West 13.8 mph 21.9 mph N/A   Overcast
2:54 PM 39.0 °F 32.3 °F 23.0 °F 53% 30.19 in 10.0 mi West 10.4 mph - N/A   Scattered Clouds
3:54 PM 37.0 °F 28.9 °F 21.9 °F 54% 30.23 in 10.0 mi NW 12.7 mph - N/A   Overcast
4:54 PM 36.0 °F 31.1 °F 21.0 °F 55% 30.24 in 10.0 mi West 5.8 mph - N/A   Partly Cloudy
5:54 PM 34.0 °F 28.8 °F 19.0 °F 54% 30.27 in 10.0 mi NW 5.8 mph - N/A   Partly Cloudy
6:54 PM 33.1 °F 26.9 °F 19.0 °F 56% 30.29 in 10.0 mi WNW 6.9 mph - N/A   Clear
7:54 PM 30.9 °F 26.2 °F 19.0 °F 61% 30.31 in 10.0 mi NW 4.6 mph - N/A   Clear
8:54 PM 30.0 °F 23.2 °F 19.0 °F 64% 30.32 in 10.0 mi WNW 6.9 mph - N/A   Clear
9:54 PM 27.0 °F 21.6 °F 18.0 °F 69% 30.35 in 10.0 mi NNW 4.6 mph - N/A   Clear
10:54 PM 27.0 °F - 18.0 °F 69% 30.36 in 10.0 mi Calm Calm - N/A   Clear
11:54 PM 27.0 °F 23.0 °F 18.0 °F 69% 30.36 in 10.0 mi NNW 3.5 mph - N/A   Clear